Back to catalog

CZ-3B R/B

AliveHEO
NORAD 43649·ROCKET BODY·🇨🇳 China

Launched Oct 15, 2018 from Xichang Satellite Launch Center

Loading…

Next Passes (next 24 hours)

TLE

FreshSource: Space-Track

Epoch: Sep 14, 2026, 02:50 UTC

1 43649U 18078C   26257.11871303  .00001200  00000-0  10104-2 0  9997
2 43649  54.8805 182.8128 5529371  28.3939 352.9733  4.64731013133349

Track CZ-3B R/B in real time with AllMySat

Download on the App Store